Regional Weather Roundup
Issued by NWS Boston, MA

Current Version | Previous Version | Graphics & Text | Print | Product List | Glossary On
Versions: 1 2 3 4 5 6 7 8 9 10 11 12 13 14 15 16 17 18 19 20 21 22 23 24 25 26 27 28 29 30 31 32 33 34 35 36 37 38 39 40 41 42 43 44 45 46 47 48
000
ASUS41 KBOX 031305
RWRBOX

REGIONAL WEATHER ROUNDUP
NATIONAL WEATHER SERVICE BOSTON/NORTON MA
900 AM EDT MON AUG 03 2020

NOTE:  "FAIR" INDICATES FEW OR NO CLOUDS BELOW 12,000 FEET WITH NO
SIGNIFICANT WEATHER AND/OR OBSTRUCTIONS TO VISIBILITY.

MAZALL-031400-
EASTERN MASSACHUSETTS

CITY           SKY/WX    TMP DP  RH WIND       PRES   REMARKS
BOSTON         PTSUNNY   84  66  54 SW17      29.91R
BEVERLY        MOSUNNY   84  68  58 SW15G22   29.89S
LAWRENCE       MOSUNNY   81  71  71 SW15G24   29.92R
BEDFORD        MOSUNNY   82  70  66 SW12G18   29.90R
BLUE HILL      NOT AVBL
NORWOOD        MOSUNNY   84  68  58 SW8G20    29.92S
MARSHFIELD     SUNNY     86  72  62 SW10G17   29.92F HX  92
PLYMOUTH       SUNNY     85  72  65 SW14      29.95S HX  91
TAUNTON        SUNNY     86  71  60 VRB7G17   29.94S HX  91
NEW BEDFORD    SUNNY     85  72  65 SW12G17   29.95S HX  91
$$

MAZALL-031400-
CAPE COD AND THE ISLANDS

CITY           SKY/WX    TMP DP  RH WIND       PRES   REMARKS
FALMOUTH       SUNNY     82  73  74 SW14G29   29.97S
HYANNIS        SUNNY     85  75  72 SW14G22   29.95S HX  93
CHATHAM        CLOUDY    81  75  82 SW8G20    29.98S
PROVINCETOWN   SUNNY     80  75  84 SW16      29.95R
NANTUCKET      CLOUDY    77  73  87 SW13      30.00R
MARTHAS VNYRD  CLOUDY    80  76  87 SW15      29.99R
$$

MAZALL-031400-
CENTRAL AND WESTERN MASSACHUSETTS

CITY           SKY/WX    TMP DP  RH WIND       PRES   REMARKS
WORCESTER      SUNNY     78  66  66 SW14      29.97R
FITCHBURG      MOSUNNY   81  66  60 SW13G18   29.93R
ORANGE         SUNNY     78  66  66 SW13G21   29.96R
SPRINGFIELD    PTSUNNY   79  65  60 W12       29.95R
WESTFIELD      MOSUNNY   79  65  62 SW9       29.96R
NORTH ADAMS    PTSUNNY   78  62  57 W10       29.96R
PITTSFIELD     MOSUNNY   76  62  62 W10       29.98R
$$

RIZALL-031400-
RHODE ISLAND

CITY           SKY/WX    TMP DP  RH WIND       PRES   REMARKS
PROVIDENCE     MOSUNNY   85  71  63 SW12      29.96S HX  90
NEWPORT        SUNNY     82  73  74 S7        29.97S
BLOCK ISLAND   MOSUNNY   77  73  87 SW17      30.00R
SMITHFIELD     SUNNY     81  69  67 SW7G17    29.97S
WESTERLY       SUNNY     81  69  67 SW10      29.98R
$$

CTZALL-031400-
CONNECTICUT

CITY           SKY/WX    TMP DP  RH WIND       PRES   REMARKS
BRADLEY INTL   PTSUNNY   79  63  57 SW10      29.96R
HARTFORD       MOSUNNY   82  64  54 W9        29.96R
BRIDGEPORT     MOSUNNY   82  65  56 SW10      29.98R
DANBURY        MOSUNNY   78  63  59 SW15      30.01R
GROTON         SUNNY     82  70  66 SW13G18   29.97R
NEW HAVEN      MOSUNNY   82  67  60 W8        29.98R
CHESTER        NOT AVBL
MERIDEN        MOSUNNY   79  64  60 VRB5      29.98R
WILLIMANTIC    SUNNY     81  65  58 W9        29.96S
OXFORD         MOSUNNY   75  64  68 VRB7G17   30.02R
$$

MEZ002-015-021-024-NHZ003-005-008-011-012-014-VTZ005-008-031400-
NORTHERN NEW ENGLAND

CITY           SKY/WX    TMP DP  RH WIND       PRES   REMARKS
PORTLAND ME    PTSUNNY   85  70  60 SW15G22   29.85S
BANGOR ME      PTSUNNY   76  72  87 S12       29.83F
CONCORD NH     MOSUNNY   81  66  60 SW13G22   29.89R
MANCHESTER NH  PTSUNNY   82  68  62 SW9       29.89R
NASHUA NH      MOSUNNY   81  71  71 W10       29.91R
PORTSMOUTH NH  PTSUNNY   84  67  56 SW12G22   29.86S
JAFFREY NH     MOSUNNY   74  65  73 VRB7      29.96R
KEENE NH       SUNNY     77  67  71 SW8       29.93R
BURLINGTON VT  PTSUNNY   77  61  57 W8        29.83R
MT. WASHINGTON FOG       52  52 100 W48G59      N/A  VSB 1/16
$$

NYZ052-076-031400-
EASTERN NEW YORK

CITY           SKY/WX    TMP DP  RH WIND       PRES   REMARKS
ALBANY         PTSUNNY   76  63  64 W8G20     29.95R
NEW YORK CITY  PTSUNNY   82  60  47 W8        30.00R
$$

ANZALL-031400-
MARINE OBSERVATIONS

STATION/POSITION TIME  TEMP    WIND        PRES    VSBY  WAVE
                       AIR SEA DIR/SP/G                  HT/PER
                 (UTC) (F)     (DEG/KT/KT) (MB)    (MI)  (FT/S)
BOSTON BUOY      1250   74 71  180/ 12/ 14 1011.7R         2/ 5
BUZZARDS BAY     1200          230/ 19/ 21 1015.7R
NANTUCKET SOUND  1250      76  210/ 17/ 21   N/A           2/ 3
MASS BAY-STELLWA NOT AVBL
ISLE OF SHOALS   1200   75     200/ 22/ 23 1011.0R
S OF BLOCK IS    1226      71                N/A           6/ 7
$$

......................KEY.........................
  SKY/WX - SKY CONDITION/PRESENT WEATHER
  TMP    - TEMPERATURE IN FAHRENHEIT
  DWPT   - DEWPOINT IN FAHRENHEIT
  RH     - RELATIVE HUMIDITY IN PERCENT
  WIND   - DIRECTION AND SPEED IN MPH
  PRES   - MEAN SEA LEVEL PRESSURE IN INCHES OF HG
  WCI    - WIND CHILL INDEX
  VSB    - VISIBILITY IN MILES
  HX     - HEAT INDEX
  TC     - TEMPERATURE IN CELSIUS
  VRB    - VARIABLE WIND DIRECTION
  N/A    - NOT AVAILABLE



USA.gov is the U.S. government's official web portal to all federal, state and local government web resources and services.